Dewpoint
53 53 53 52 52 52 52 53 53 53 53 53 54 54 53 53 54 55 55 54 54 54 54 54 55 56 56 56 56 56 56 54 53 52 52 52 55 59 59 60 60 60 61 55 51 47 43 44 43 42 39 40 39 34 34 34 36 34 32 32 30 31 30 33 31 38 39 39 41 43 46 48 46 50 52 53 55 53 53 55 59 61 63 64 65 67 67 68
53 53 52 53 53 53 53 53 53 53 53 53 53 53 54 54 54 54 54 55 55 54 54 54 54 55 56 56 56 56 55 54 52 52 51 54 58 60 62 63 63 62 59 52 49 47 43 43 43 41 39 40 40 34 34 32 34 32 33 33 31 31 32 36 38 42 42 43 44 44 47 49 49 51 52 50 49 51 51 54 59 60 63 64 65 65 66 66
53 53 53 53 53 53 53 53 53 53 53 53 53 53 53 54 54 54 54 54 55 54 54 54 54 54 55 56 56 56 54 52 51 49 51 61 59 59 62 64 64 63 53 52 51 47 43 43 44 43 40 39 38 37 35 37 34 34 35 33 35 38 35 36 40 43 45 47 47 47 49 50 50 51 53 51 50 51 50 51 57 60 61 61 64 65 64 62
53 53 53 53 53 53 53 53 52 52 52 52 52 53 53 53 53 54 54 54 54 54 54 54 54 54 55 56 56 55 53 51 41 46 51 65 62 64 64 63 61 63 50 51 51 46 45 44 44 41 37 38 41 37 35 35 30 35 34 35 37 39 36 38 40 43 46 49 48 49 49 49 51 52 53 52 51 49 50 53 56 59 61 62 64 62 62 62
53 53 53 53 53 53 53 52 52 52 52 52 53 53 53 53 53 53 54 54 54 54 54 54 54 54 55 56 56 54 50 35 40 50 59 64 62 63 64 64 62 58 50 48 47 46 45 44 43 37 38 36 39 33 35 32 31 38 33 36 39 40 36 37 37 43 48 49 48 48 47 46 52 53 52 53 50 49 50 55 56 56 57 57 62 62 62 63
53 53 53 53 53 53 53 53 53 52 52 52 52 53 52 52 53 53 53 54 54 54 54 54 54 54 55 56 55 53 44 31 38 49 64 63 63 64 65 64 63 51 48 47 46 47 45 44 38 36 33 32 32 30 32 31 34 31 32 36 37 40 39 43 44 47 48 47 47 45 49 51 51 50 50 52 51 52 55 56 56 56 56 59 58 62 62 62
54 53 53 53 52 53 53 53 53 53 52 52 52 52 52 52 53 53 53 53 54 53 53 54 54 55 55 55 54 52 41 38 50 52 64 62 63 64 62 61 59 50 49 48 48 46 45 43 37 38 35 32 35 32 35 39 40 32 30 36 39 40 40 43 46 48 48 47 46 48 51 49 49 47 52 52 53 54 56 58 58 58 59 59 58 61 61 61
54 54 53 53 53 53 53 53 53 53 53 53 52 53 53 52 52 53 53 53 53 53 53 54 54 55 55 53 51 48 46 44 47 59 66 62 60 60 57 52 52 50 47 47 47 47 46 43 41 37 36 33 35 34 38 36 40 35 33 38 40 41 46 45 45 46 47 48 50 50 48 47 49 50 52 52 53 56 59 60 59 59 59 59 60 61 61 61
54 54 53 53 53 53 53 53 53 53 53 53 53 53 53 53 53 53 52 52 53 53 54 54 54 54 55 53 50 39 38 45 49 63 63 58 57 52 50 50 51 48 49 51 50 49 45 44 42 36 34 36 41 36 38 33 32 37 35 43 44 43 45 45 46 46 47 48 49 48 46 47 50 51 50 51 54 57 60 59 58 58 58 59 61 61 61 62
54 54 54 53 53 53 53 53 53 53 53 53 53 53 53 53 53 52 52 52 53 53 54 54 54 55 52 52 48 39 38 57 62 63 57 56 55 52 51 52 51 52 49 51 51 50 47 46 41 38 42 41 41 37 42 35 34 39 41 42 41 40 44 47 44 45 47 47 49 46 46 46 50 49 46 51 56 58 59 57 56 57 57 58 60 61 61 61
54 54 54 53 53 53 53 53 53 53 54 54 54 54 53 53 52 52 52 52 53 53 54 55 54 54 53 52 42 39 49 54 60 60 57 57 54 50 48 52 51 49 50 53 51 51 49 49 46 43 39 35 36 37 39 39 41 41 41 42 41 42 44 46 46 46 47 43 49 48 47 48 49 49 47 51 57 57 56 57 56 56 57 57 59 60 60 61
54 54 54 54 53 53 53 53 53 53 54 54 54 54 53 53 52 52 52 52 53 53 53 53 55 54 52 50 46 42 51 52 61 59 58 56 52 51 53 52 51 50 49 50 51 52 51 51 38 35 35 38 37 42 39 45 41 41 41 37 40 41 38 42 43 45 46 45 50 49 45 42 45 45 50 55 56 55 55 56 55 56 57 57 59 59 59 61
54 54 54 54 53 52 52 53 53 53 54 54 53 53 53 53 52 52 52 52 53 54 54 55 55 53 52 44 47 49 51 59 60 59 58 55 54 55 55 54 51 51 50 49 49 50 51 50 38 38 43 37 42 36 41 43 44 43 43 38 38 38 34 40 46 47 47 47 50 47 34 36 42 47 54 55 54 54 53 54 55 55 56 57 58 59 60 61
53 53 53 53 53 52 52 53 53 53 53 53 53 53 53 53 53 52 52 52 53 54 54 53 53 53 50 43 44 50 53 57 58 57 55 56 53 52 55 55 53 51 52 51 51 51 52 44 39 43 44 40 38 44 42 42 44 37 39 39 35 32 30 38 45 45 45 49 50 46 34 38 43 48 54 54 55 53 53 54 55 56 56 56 58 59 59 60
53 53 53 53 53 52 52 53 53 53 53 53 53 53 53 52 52 52 53 53 53 54 54 54 54 52 47 48 50 52 60 54 52 52 54 51 51 49 51 55 54 53 52 52 51 52 47 46 43 41 39 46 40 38 37 37 38 39 32 29 33 32 33 38 45 47 42 48 50 44 37 39 45 49 54 54 54 53 53 54 55 56 56 56 57 58 59 60
53 53 53 53 53 52 52 53 53 53 53 53 53 52 52 52 52 53 52 53 54 54 54 52 52 52 48 46 51 57 51 48 48 49 52 51 50 46 46 52 51 51 50 48 50 50 49 46 37 40 43 40 38 37 35 32 33 34 33 31 31 33 34 34 44 48 49 48 49 44 38 42 44 48 53 54 54 53 53 54 54 55 57 57 57 58 58 59
53 52 53 53 53 52 52 52 52 53 53 52 52 52 52 52 52 53 53 54 54 54 53 50 52 52 42 48 54 52 50 50 53 50 51 52 51 48 46 46 47 50 51 47 50 46 48 46 45 43 43 39 39 38 33 27 26 29 33 31 34 32 33 32 38 44 48 48 45 47 43 44 48 52 53 52 55 54 53 54 55 56 57 57 57 58 58 59
52 52 52 53 53 52 52 52 52 53 52 52 51 52 53 54 54 54 54 53 53 52 52 52 51 46 41 47 45 45 51 52 52 51 50 52 52 49 48 48 51 51 50 50 50 47 47 43 44 38 40 39 37 34 29 26 29 29 31 31 34 35 35 33 34 38 47 47 45 45 45 48 50 52 53 54 55 55 54 55 55 56 57 57 57 57 58 59
52 52 53 53 53 52 52 52 52 52 52 51 52 55 54 54 52 51 51 51 47 42 38 44 42 33 36 38 45 43 47 49 53 51 50 51 52 50 52 52 51 46 43 47 46 48 47 42 41 38 36 36 36 36 33 33 35 34 34 34 34 34 35 34 38 43 47 44 42 43 41 46 48 50 53 54 55 54 55 55 56 56 56 57 57 56 58 58
52 52 52 52 52 52 52 52 52 52 51 50 49 51 50 41 40 42 50 50 47 40 35 35 44 42 41 39 38 43 51 52 50 51 51 51 49 47 46 51 46 49 44 40 47 50 47 37 35 36 37 38 40 38 38 38 38 39 40 38 37 37 37 39 41 45 47 43 43 44 46 47 48 48 51 53 54 54 53 53 54 55 55 56 57 57 58 58
52 52 52 52 52 52 52 51 51 51 51 50 48 44 30 32 35 33 37 44 47 47 43 41 43 41 38 41 42 45 42 43 46 48 50 50 46 45 45 47 45 45 44 46 45 50 45 38 38 39 40 41 42 41 41 41 42 40 39 39 38 37 34 40 45 47 48 43 41 45 46 47 48 49 51 53 53 53 53 53 54 55 55 55 57 57 58 59
53 52 52 52 52 52 52 51 51 51 51 49 48 41 30 35 35 35 38 35 37 45 46 44 45 42 42 40 42 44 42 39 41 45 46 46 45 43 47 48 43 41 48 47 45 42 41 38 40 43 45 45 44 42 42 40 40 42 39 37 36 36 38 43 44 47 48 43 41 44 44 46 48 50 52 52 52 53 55 55 55 55 54 55 57 57 58 59
53 53 52 52 52 52 52 51 51 52 50 47 46 46 41 38 40 39 38 39 38 42 44 45 43 43 43 44 41 41 39 38 38 42 44 45 44 43 45 45 43 43 45 45 40 39 39 41 45 47 45 44 44 43 42 42 42 40 38 36 35 36 38 37 43 45 47 43 42 44 44 44 47 49 50 52 52 54 55 55 56 56 55 56 56 57 57 58
52 52 52 52 51 51 51 51 51 49 47 47 44 42 39 42 41 42 43 41 38 40 43 43 43 43 42 43 43 40 39 41 39 40 45 44 42 46 45 45 45 45 44 45 42 40 40 42 49 49 47 44 42 43 41 38 37 39 39 37 35 38 39 37 39 45 45 46 46 43 41 43 46 47 50 52 54 53 54 55 56 57 57 57 57 57 58 58
52 52 52 51 51 51 51 51 48 47 48 46 45 45 45 44 44 39 44 45 45 46 49 45 44 42 43 45 44 42 43 38 39 42 44 43 43 42 43 47 45 43 45 45 45 42 43 44 49 46 48 46 44 42 41 40 37 38 40 40 39 39 40 43 43 41 37 38 43 41 33 38 44 47 48 50 50 51 54 53 54 56 56 56 56 57 58 59
52 52 51 51 51 50 50 48 48 48 46 41 42 42 45 47 46 42 46 41 37 43 37 38 44 38 41 38 44 41 42 39 38 42 44 43 51 46 48 46 45 40 45 47 45 43 42 49 48 45 47 47 45 43 43 42 37 34 35 44 42 42 42 41 40 37 32 32 42 44 35 35 42 45 48 50 50 50 53 52 54 55 56 56 56 57 58 58
52 51 51 51 51 50 45 45 48 47 29 30 36 44 47 48 49 52 44 32 27 32 33 35 37 36 37 36 43 36 32 33 41 43 46 50 43 54 43 43 46 48 46 48 42 40 49 47 46 47 46 45 43 41 43 42 37 35 40 46 45 43 42 41 40 38 36 42 44 45 39 34 34 40 47 50 49 50 50 51 53 53 55 56 56 57 57 58
51 51 51 51 50 49 42 45 47 36 31 36 46 46 48 50 50 49 34 22 22 32 36 35 37 38 36 36 36 34 35 39 38 41 43 48 46 43 41 43 43 44 46 42 37 40 46 45 46 45 45 43 42 44 46 42 38 37 45 47 45 44 43 42 41 39 40 38 33 41 41 32 33 38 45 48 46 47 48 51 53 54 55 55 56 57 58 58
51 51 51 50 50 50 49 47 46 41 44 48 48 48 49 50 48 43 31 21 30 33 40 43 41 37 37 35 34 35 36 38 36 39 44 46 44 46 40 42 46 46 47 43 42 43 45 44 46 46 44 42 45 46 47 46 43 46 49 48 47 46 45 42 39 37 37 36 35 41 42 30 30 36 42 44 45 46 47 49 51 53 53 54 55 57 57 58
51 50 49 50 48 48 49 49 47 46 49 48 48 49 50 48 42 36 22 20 35 31 37 36 38 36 39 35 37 39 35 37 39 40 42 41 41 43 41 47 46 46 46 47 45 44 44 55 50 46 44 45 47 47 48 48 47 50 48 44 43 43 41 41 39 37 33 31 36 43 43 36 30 35 41 43 44 48 50 51 52 52 54 55 55 56 57 58
49 49 49 49 43 47 49 41 44 49 49 48 49 46 45 41 35 23 19 27 35 34 38 36 36 38 38 37 37 39 36 37 38 39 38 39 37 40 40 38 45 43 39 40 41 44 46 47 46 46 52 47 46 45 48 50 50 49 45 43 40 38 39 36 34 36 30 30 38 44 43 40 31 35 43 48 50 51 51 51 51 52 52 53 54 56 57 58
49 49 49 47 47 48 41 35 41 46 47 50 47 43 38 27 32 26 21 34 29 32 34 33 37 38 38 38 39 39 36 39 38 38 37 37 38 37 38 36 41 35 36 34 36 41 41 42 44 45 53 46 47 45 44 47 48 47 44 41 36 32 33 30 32 29 29 32 40 44 41 36 36 41 47 50 51 52 52 51 52 52 52 52 55 56 57 57
48 50 49 49 50 46 47 47 50 50 51 49 42 40 32 27 20 28 32 33 28 35 35 37 37 38 38 39 39 39 39 38 39 40 40 40 39 39 41 39 42 38 32 36 36 36 37 40 44 46 44 49 45 41 40 41 44 43 40 37 33 30 27 27 30 32 32 39 43 43 42 35 41 45 50 51 52 54 54 54 53 53 53 53 55 56 57 57
48 49 45 48 48 47 50 52 50 50 47 47 36 23 20 22 21 49 37 37 32 34 38 38 37 38 38 38 39 40 38 38 39 39 39 38 39 38 39 40 42 40 40 37 33 33 32 33 39 47 41 45 44 43 43 40 42 42 44 41 36 32 32 29 31 30 32 34 38 42 37 36 38 43 52 52 54 56 56 56 54 54 54 55 56 56 56 56
48 46 45 48 49 49 49 49 48 50 45 38 26 24 11 14 26 27 29 33 31 34 36 38 39 37 36 39 39 40 39 38 40 40 39 38 36 38 38 38 41 43 41 35 34 36 37 35 38 46 46 44 42 45 46 45 43 44 46 45 42 39 38 33 35 35 36 34 33 38 38 43 44 51 53 55 55 55 54 54 55 55 56 56 56 56 56 57
46 45 48 50 51 53 50 50 49 47 37 32 25 15 14 24 22 32 30 34 33 31 31 33 38 36 35 37 39 40 42 39 39 39 38 39 40 38 39 41 41 41 39 34 35 32 33 32 38 43 44 45 44 46 45 45 37 41 42 38 42 46 41 33 33 37 38 34 34 38 40 43 49 51 52 52 53 54 54 54 54 55 56 57 57 57 58 58
43 48 42 49 54 53 50 49 50 41 31 26 21 7 25 31 27 33 45 32 32 33 36 30 33 34 34 34 36 38 41 40 39 36 34 38 36 38 40 42 41 42 41 39 37 37 33 35 38 41 41 42 48 46 47 47 43 41 37 41 49 47 43 37 31 31 31 32 33 39 38 39 40 37 50 50 51 52 54 54 55 55 56 56 57 58 58 58
45 49 53 53 53 50 50 50 46 38 34 25 12 32 35 30 33 32 34 29 31 38 36 34 34 38 35 34 35 39 41 35 37 38 36 39 34 38 41 41 43 41 41 41 37 37 39 32 36 42 44 44 48 49 46 46 46 43 41 45 40 34 35 38 33 30 26 31 32 36 40 40 42 42 47 48 50 51 52 54 54 55 56 56 57 58 58 59
45 43 40 44 54 50 51 50 42 38 29 24 23 27 31 32 33 32 30 31 37 40 34 36 35 38 37 35 37 40 42 36 39 37 34 36 34 40 41 43 42 42 42 40 38 39 39 34 34 37 42 43 45 42 36 44 46 51 48 44 46 41 35 34 36 37 37 31 32 35 39 35 45 45 48 49 51 51 52 52 53 55 56 57 57 57 57 58
43 40 39 44 54 54 53 48 42 36 29 26 25 31 31 34 33 35 36 34 34 35 36 37 41 36 39 38 40 36 40 42 40 38 38 39 39 41 39 46 42 42 42 41 40 43 37 36 29 35 38 41 38 40 39 43 40 42 41 38 39 40 44 40 37 36 34 31 30 33 33 38 44 50 49 50 52 52 53 53 54 55 56 57 57 57 57 58
46 41 41 48 52 52 46 42 38 34 32 32 35 33 34 33 38 41 40 37 34 38 39 40 40 35 37 36 37 42 40 41 42 38 40 40 37 34 39 41 43 43 43 39 39 39 34 35 31 34 37 37 38 40 41 42 43 41 40 37 40 40 36 32 30 36 35 31 28 31 33 39 46 52 51 51 53 53 54 54 55 55 56 56 56 57 58 58
35 37 42 46 49 47 42 37 36 39 35 33 34 37 36 47 39 37 38 40 38 37 41 42 43 42 41 39 38 41 40 38 40 39 40 37 40 40 40 43 43 44 42 38 39 40 40 37 36 31 34 36 38 40 40 43 45 43 42 39 42 38 36 31 29 33 34 35 36 35 34 35 48 52 53 53 54 54 55 55 55 55 56 56 57 57 58 58
35 36 41 46 50 44 40 35 38 38 35 37 40 40 37 38 38 37 39 40 37 38 39 39 42 39 40 40 42 42 41 39 41 39 41 43 43 42 42 43 45 42 41 41 42 40 58 36 33 33 33 34 34 37 44 45 45 41 40 43 40 37 37 35 33 35 33 34 31 28 30 33 44 51 53 54 54 55 56 55 55 56 56 57 57 57 57 57
34 36 43 47 51 46 39 32 32 34 37 41 43 42 41 39 39 39 39 41 39 38 38 38 41 40 41 46 43 40 42 33 39 42 38 43 41 44 46 46 42 42 42 41 41 44 33 34 34 28 27 28 30 34 36 39 43 40 39 41 42 41 39 39 37 36 34 33 32 28 29 30 42 52 53 53 54 54 55 56 56 55 56 56 56 56 56 56
41 43 43 46 50 46 40 39 37 35 37 38 41 38 38 40 38 39 40 40 40 39 40 40 41 43 43 44 43 44 45 39 37 41 41 43 42 46 46 42 42 43 43 49 58 45 38 37 32 28 25 23 23 25 29 34 36 39 43 44 43 40 38 37 32 32 29 34 35 31 30 38 48 52 52 52 54 54 55 56 56 56 56 55 56 56 56 56
41 33 38 41 42 46 45 44 40 39 37 38 37 38 40 38 38 41 40 40 41 42 41 41 42 44 43 41 40 42 42 44 40 38 41 40 42 44 45 42 43 44 52 51 55 45 38 37 33 30 27 26 28 33 37 39 39 39 41 43 43 41 40 38 35 30 30 35 35 35 38 43 47 50 51 52 54 53 54 55 55 55 55 55 55 54 54 54
42 36 35 32 39 41 42 42 42 41 38 40 33 38 37 39 40 40 41 38 41 41 42 42 42 38 38 40 39 40 42 42 41 42 42 41 42 44 44 43 42 51 52 45 52 40 37 34 37 35 35 36 37 38 40 43 40 41 42 42 42 42 39 37 33 31 36 36 31 38 44 44 46 50 51 52 54 54 54 55 55 55 54 54 54 54 54 54
35 37 41 40 36 33 33 33 42 42 43 41 38 41 38 39 39 37 39 41 42 42 38 39 40 43 40 40 39 33 37 37 37 36 41 42 42 41 38 40 41 46 46 40 48 40 37 31 37 38 38 40 42 42 43 42 43 43 43 42 41 42 40 37 37 38 36 31 31 40 43 43 47 50 51 53 54 54 54 54 55 55 54 54 54 53 53 53
37 39 41 44 35 38 38 39 45 44 43 43 39 41 38 39 37 40 39 39 41 40 39 32 36 38 41 43 39 37 38 32 33 37 39 38 41 39 37 39 39 41 39 39 43 41 38 34 37 40 37 38 39 42 44 43 42 43 43 43 43 42 41 40 40 41 38 37 38 43 42 42 47 50 52 54 55 54 55 55 55 54 54 53 52 52 51 51
37 32 37 42 42 42 42 43 43 42 41 44 41 40 39 40 37 40 41 39 36 38 43 38 37 39 42 43 40 37 39 38 37 36 39 40 38 39 38 38 38 40 39 39 43 42 37 31 41 37 34 35 38 42 42 42 42 41 42 44 44 42 42 42 42 42 44 43 43 42 42 42 47 50 52 54 54 55 55 54 54 53 53 52 50 49 49 49
45 42 40 33 25 34 44 42 42 40 35 37 35 37 41 41 39 40 40 42 38 38 40 37 38 39 42 43 41 41 42 41 40 40 40 40 34 40 34 37 40 38 40 40 42 43 40 33 36 33 31 33 37 40 41 39 41 40 40 42 44 43 39 40 39 42 40 41 41 42 41 41 46 51 52 53 54 54 53 52 52 51 52 50 49 48 48 48
45 46 44 39 27 45 40 42 39 36 31 37 39 39 38 38 41 41 36 39 42 41 40 40 40 37 36 37 37 39 40 43 42 41 40 41 40 41 40 38 40 39 39 39 43 40 39 36 34 31 31 28 34 39 38 35 34 33 35 39 44 43 42 42 42 44 43 44 43 39 41 43 49 52 52 53 53 53 52 51 51 51 50 49 48 48 48 49